Simultaneous Nadir Overpasses (SNOs) Predictions

Prediction of SNOs between METOP-B and NOAA-19 Satellite Orbit:

Table of predicted SNOs for the next 14.0 days since TLE Epoch: 10/29/2016
Index Date (METOP-B) Time (METOP-B) Lat,Lon (METOP-B) SZA (METOP-B ) Date (NOAA-19) Time (NOAA-19) Lat,Lon (NOAA-19) SZA (NOAA-19 ) Distance(km) Time Diff (sec)
1 11/01/2016 06:44:27 76.53, 81.29 91.12 11/01/2016 06:43:13 76.56, 80.90 91.14 10.84 74
2 11/01/2016 07:35:09 -76.49,-111.52 88.91 11/01/2016 07:34:07 -76.51,-111.61 88.90 3.17 62
3 11/01/2016 08:25:50 76.47, 55.71 91.08 11/01/2016 08:25:13 76.48, 55.72 91.09 2.05 37
4 11/01/2016 09:16:31 -76.47,-136.93 88.91 11/01/2016 09:16:08 -76.47,-136.97 88.91 1.05 23
5 11/01/2016 10:07:12 76.45, 30.31 91.08 11/01/2016 10:07:14 76.45, 30.36 91.08 1.47 2
6 11/01/2016 10:57:53 -76.46,-162.33 88.91 11/01/2016 10:58:09 -76.43,-162.33 88.93 2.31 16
7 11/01/2016 11:48:34 76.43, 4.90 91.08 11/01/2016 11:49:16 76.45, 4.84 91.11 2.95 42
8 11/01/2016 12:39:15 -76.44, 172.26 88.90 11/01/2016 12:40:11 -76.44, 172.15 88.90 2.98 56
9 11/01/2016 13:30:02 76.14, -21.48 90.79 11/01/2016 13:31:11 76.15, -19.52 90.86 52.25 69
10 11/11/2016 23:31:05 76.51,-170.42 94.26 11/11/2016 23:29:50 76.56,-170.46 94.29 5.09 75
11 11/12/2016 00:21:46 -76.53, -3.01 85.72 11/12/2016 00:20:44 -76.51, -3.01 85.74 2.39 62
12 11/12/2016 01:12:27 76.49, 164.17 94.25 11/12/2016 01:11:51 76.52, 164.19 94.28 2.96 36
13 11/12/2016 02:03:08 -76.51, -28.42 85.72 11/12/2016 02:02:46 -76.52, -28.53 85.72 2.94 22
14 11/12/2016 02:53:49 76.47, 138.76 94.25 11/12/2016 02:53:52 76.48, 138.83 94.26 2.00 3
15 11/12/2016 03:44:30 -76.50, -53.83 85.72 11/12/2016 03:44:47 -76.48, -53.89 85.73 2.45 17
16 11/12/2016 04:35:11 76.45, 113.35 94.25 11/12/2016 04:35:53 76.44, 113.47 94.25 3.39 42
17 11/12/2016 05:25:52 -76.48, -79.24 85.72 11/12/2016 05:26:48 -76.44, -79.25 85.75 3.98 56
18 11/12/2016 06:16:40 76.12, 86.81 93.91 11/12/2016 06:17:48 76.14, 89.12 94.00 61.58 68




NCC Satellite Simultaneous Nadir Overpasses (SNOs) Prediction Service
